Weather History for KASE - July, 2013

Change the Weather History Date:

Wednesday, July 10, 2013

  Actual Average Record
Temperature  
Mean Temperature 70 °F 63 °F  
Max Temperature 87 °F 80 °F 87 °F (2002)
Min Temperature 52 °F 47 °F 40 °F (1982)
Degree Days  
Heating Degree Days 0 2  
Month to date heating degree days 6 29  
Since 1 June heating degree days 152 258  
Since 1 July heating degree days 6 29  
Cooling Degree Days 5 1  
Month to date cooling degree days 13 8  
Year to date cooling degree days 29 12  
Since 1 June cooling degree days 29 12  
Growing Degree Days 20 (Base 50)    
Moisture  
Dew Point 39 °F    
Average Humidity 39    
Maximum Humidity 64    
Minimum Humidity 14    
Precipitation  
Precipitation 0.00 in 0.05 in 0.60 in (1984)
Month to date precipitation 0.16 0.43  
Year to date precipitation 6.93 8.50  
Sea Level Pressure  
Sea Level Pressure 29.92 in    
Wind  
Wind Speed 6 mph (WSW)    
Max Wind Speed 18 mph    
Max Gust Speed 24 mph    
Visibility 10 miles    
Events      
T = Trace of Precipitation, MM = Missing Value Source: NWS Daily Summary

Daily Weather History Graph

Daily Weather History Graph

Search for Another Location

Airport or City:

Trip Planner

Search our weather history database for the weather conditions in past years. The results will help you decide how hot, cold, wet, or windy it might be!

Date:

Astronomy

Jul. 10, 2013 Rise Set
Actual Time 5:50 AM MDT 8:35 PM MDT
Civil Twilight 5:18 AM MDT 9:06 PM MDT
Nautical Twilight 4:38 AM MDT 9:46 PM MDT
Astronomical Twilight 3:53 AM MDT 10:31 PM MDT
Moon 8:12 AM MDT (7/10) 9:48 PM MDT (7/10)
Length of Visible Light 15h 48m
Length of Day
14h 45m
Waxing Crescent, 5% of the Moon is Illuminated
Jul 10
Waxing Crescent
Jul 15
First Quarter
Jul 22
Full
Jul 29
Last Quarter
Aug 6
New

Hourly Weather History & Observations

Time (MDT) Temp. Dew Point Humidity Pressure Visibility Wind Dir Wind Speed Gust Speed Precip Events Conditions
12:53 AM 61.0 °F 39.0 °F 44% 29.98 in 10.0 mi SW 4.6 mph - N/A   Clear
1:53 AM 62.1 °F 39.0 °F 43% 29.96 in 10.0 mi SSW 6.9 mph - N/A   Clear
2:53 AM 61.0 °F 39.9 °F 46% 29.94 in 10.0 mi Calm Calm - N/A   Clear
3:53 AM 61.0 °F 39.9 °F 46% 29.94 in 10.0 mi SSW 4.6 mph - N/A   Clear
4:53 AM 57.0 °F 39.9 °F 53% 29.96 in 10.0 mi Calm Calm - N/A   Clear
5:53 AM 53.1 °F 41.0 °F 64% 29.99 in 10.0 mi Calm Calm - N/A   Clear
6:53 AM 57.9 °F 42.1 °F 56% 29.99 in 10.0 mi Calm Calm - N/A   Partly Cloudy
7:53 AM 64.0 °F 44.1 °F 48% 29.99 in 10.0 mi Calm Calm - N/A   Clear
8:53 AM 70.0 °F 45.0 °F 41% 29.99 in 10.0 mi North 5.8 mph - N/A   Partly Cloudy
9:53 AM 75.9 °F 44.1 °F 32% 29.98 in 10.0 mi Variable 4.6 mph - N/A   Clear
10:53 AM 79.0 °F 42.1 °F 27% 29.96 in 10.0 mi Variable 3.5 mph - N/A   Scattered Clouds
11:53 AM 78.1 °F 41.0 °F 27% 29.96 in 10.0 mi SSW 9.2 mph - N/A   Scattered Clouds
12:53 PM 81.0 °F 37.0 °F 21% 29.93 in 10.0 mi SE 8.1 mph - N/A   Scattered Clouds
1:53 PM 84.9 °F 34.0 °F 16% 29.88 in 10.0 mi Variable 6.9 mph 23.0 mph N/A   Mostly Cloudy
2:53 PM 84.9 °F 35.1 °F 17% 29.88 in 10.0 mi NNW 15.0 mph 23.0 mph N/A   Scattered Clouds
3:53 PM 84.9 °F 34.0 °F 16% 29.86 in 10.0 mi NNW 10.4 mph 23.0 mph N/A   Scattered Clouds
4:53 PM 86.0 °F 32.0 °F 14% 29.84 in 10.0 mi NNW 12.7 mph 24.2 mph N/A   Clear
5:53 PM 86.0 °F 32.0 °F 14% 29.83 in 10.0 mi NW 9.2 mph 17.3 mph N/A   Clear
6:53 PM 82.9 °F 33.1 °F 17% 29.81 in 10.0 mi NNW 8.1 mph - N/A   Clear
7:53 PM 77.0 °F 37.0 °F 24% 29.82 in 10.0 mi West 6.9 mph - N/A   Clear
8:53 PM 64.9 °F 42.1 °F 43% 29.85 in 10.0 mi SSW 5.8 mph - N/A   Clear
9:53 PM 64.0 °F 39.0 °F 40% 29.87 in 10.0 mi SSW 8.1 mph - N/A   Clear
10:53 PM 62.1 °F 37.9 °F 41% 29.87 in 10.0 mi SSW 6.9 mph - N/A   Clear
11:53 PM 59.0 °F 36.0 °F 42% 29.90 in 10.0 mi SSW 9.2 mph - N/A   Clear